User: anonymous   Login
Location: New Plymouth
(39.0670°S, 174.0830°E)
Time: 22:14:18
(UTC+13:00)
Language:

Atlas Centaur 2 - Orbit

View from above orbital plane
View from above orbital plane
View from above satellite
View from above satellite

Ground track
Ground track

The orbit data is extracted from the following two-line orbital elements,

1   694U 63047A   19084.77781720  .00000520  00000-0  51887-4 0  9990
2   694  30.3590 206.4521 0586615 242.8692 111.0915 14.02451048773548
Epoch (UTC): 25 March 2019 18:40:03
Eccentricity: 0.0586615
inclination: 30.3590°
perigee height: 459 km
apogee height: 1311 km
right ascension of ascending node: 206.4521°
argument of perigee: 242.8692°
revolutions per day: 14.02451048
mean anomaly at epoch: 111.0915°
orbit number at epoch: 77354

The dashed part of the orbit path shows where the satellite is in the earth's shadow,  

DLR